If you wish to contribute or participate in the discussions about articles you are invited to join SKYbrary as a registered user

 Actions

Bremen

From SKYbrary Wiki

EDDW
Airport
ICAO: EDDW
Summary
Name Bremen
Region Europe
Territory Germany DE.gif
Location Bremen, Germany
Serving
Coordinates 53° 2' 48.00" N, 8° 47' 12.00" E
Runways
Designator Length Width Surface ROPS
5/23 700 m2,296.588 ft <br /> 23 m75.459 ft <br /> ASP no/no
9/27 2040 m6,692.913 ft <br /> 45 m147.638 ft <br /> ASP yes/yes


METAR
Observation EDDW 221050Z 34009KT 300V010 9999 SCT032 17/09 Q1016 NOSIG
Station Bremen
Date/Time 22 June 2021 10:50:00
Wind direction 340°
Wind speed 09 kts
Lowest cloud amount scattered clouds
Temperature 17°C
Dew point 9°C
Humidity 59%
QNH 1016 hPa
Weather condition n/a


Bremen Airport

ICAO: EDDW IATA: BRE

Description

International airport serving the German city of Bremen.

Climatology

Temperate Marine climate/Oceanic climate (Köppen climate classification Cfb) - Moderately cool summer and comparatively warm winter.

Maps

Terrain

Loading map...

Airport Layout

Loading map...


Accidents & Serious Incidents at or in vicinity of EDDW

None on SKYbrary